Home > Weather > Melo > Past weeks

Flag for Uruguay Weather for the Past 2 Weeks in Melo, Uruguay

Now
73 °F

Clear.


Feels Like: 70 °F
Forecast: 75 / 86 °F
Wind: 5 mph from Northeast

Location: Pelotas Airport

Current Time: Feb 13, 2016 at 2:55:22 AM

Latest Report: Feb 13, 2016 at 2:00 AM


Visibility: 10 mi

Pressure: 29.77 "Hg

Humidity: 94%

Dew point: 72 °F

Location of MeloLocation

Historic Weather in Melo — Graph

°F

Melo Temperature Yesterday

Maximum temperature yesterday: 91 °F (at 1:00 PM)
Minimum temperature yesterday: 70 °F (at 4:00 AM)
Average temperature yesterday: 80 °F

High & Low Weather Summary for the Past Weeks

 TemperatureHumidityPressure
High99 °F (Feb 8, 12:00 PM)100% (Jan 29, 3:00 AM)30.09 "Hg (Jan 29, 3:00 AM)
Low36 °F (Jan 29, 5:00 PM)32% (Feb 2, 3:00 AM)29.74 "Hg (Feb 9, 3:00 AM)
Average77 °F79%29.94 "Hg
* Reported Jan 29 2:00 AM — Feb 13 2:00 AM, Melo, Weather by CustomWeather, © 2016

Note: Actual official high and low records may vary slightly from our data, if they occured in-between our weather recording intervals... More about our weather records

Advertising

Melo Weather History for the Previous 24 Hours

 ConditionsComfort  
Time TempWeatherWind HumidityBarometerVisibility
2:00 AM
Sat, Feb 13
73 °FClear.5 mph94%29.77 "Hg10 mi
1:00 AM75 °FClear.7 mph89%29.80 "Hg10 mi
12:00 AM75 °FClear.8 mph94%29.80 "Hg10 mi
11:00 PM
Fri, Feb 12
75 °FClear.9 mph94%29.80 "Hg10 mi
10:00 PM77 °FClear.10 mph89%29.83 "Hg10 mi
9:00 PM79 °FClear.12 mph84%29.80 "Hg10 mi
8:00 PM79 °FClear.10 mph84%29.77 "Hg10 mi
7:00 PM82 °FSunny.16 mph70%29.77 "Hg10 mi
6:00 PM86 °FSunny.15 mph59%29.77 "Hg10 mi
5:00 PM88 °FSunny.17 mph62%29.80 "Hg10 mi
4:00 PM90 °FSunny.14 mph59%29.80 "Hg10 mi
3:00 PM88 °FPassing clouds.12 mph66%29.83 "HgN/A
2:00 PM90 °FScattered clouds.12 mph67%29.86 "HgN/A
1:00 PM91 °FScattered clouds.9 mph56%29.86 "HgN/A
12:00 PM90 °FScattered clouds.9 mph59%29.89 "HgN/A
11:00 AM86 °FPartly sunny.10 mph62%29.89 "HgN/A
10:00 AM84 °FScattered clouds.10 mph70%29.92 "HgN/A
9:00 AM82 °FPartly sunny.8 mph79%29.92 "HgN/A
8:00 AM77 °FScattered clouds.6 mph89%29.92 "HgN/A
7:00 AM70 °FPassing clouds.2 mph100%29.89 "HgN/A
6:00 AM70 °FPassing clouds.2 mph100%29.89 "HgN/A
5:00 AM70 °FClear.3 mph94%29.89 "Hg10 mi
4:00 AM70 °FClear.3 mph94%29.89 "Hg10 mi
3:00 AM72 °FClear.5 mph94%29.92 "Hg10 mi
2:00 AM72 °FClear.3 mph94%29.92 "Hg10 mi
Weather by CustomWeather, © 2016

See weather overviewHow to use our weather pages